Location: Plainartige
(45.6866°N, 1.7993°E)
Time: 23:13:20
(UTC+00:00)

POLYITAN 1 - Pass Details

Date: 02 July 2022
Orbit: 587 x 604 km, 98.0° (Epoch: 07 August)

Event Time Altitude Azimuth Distance (km) Brightness Sun altitude
Rises 03:04:04 0° 357° (N) 2,858 ? -9.2°
Reaches altitude 10° 03:06:57 10° 335° (NNW) 1,954 ? -8.9°
Maximum altitude 03:09:30 16° 298° (WNW) 1,604 ? -8.6°
Drops below altitude 10° 03:12:03 10° 261° (W) 1,950 ? -8.2°
Enters shadow 03:12:52 - 253° (WSW) 2,175 ? -8.1°
